Location: Newark
(41.0400°S, 62.7845°W)
Time: 08:45:11
(UTC+00:00)

Vanguard 2 Rocket - Pass Details

Date: 03 December 2021
Orbit: 553 x 3325 km, 32.9° (Epoch: 24 January)

Event Time Altitude Azimuth Distance (km) Brightness Sun altitude
Rises 15:58:08 0° 269° (W) 4,765 10.6 71.1°
Reaches altitude 10° 16:04:15 10° 296° (WNW) 3,070 9.9 71.1°
Maximum altitude 16:06:38 12° 315° (NW) 2,671 9.7 71.1°
Drops below altitude 10° 16:08:43 10° 336° (NNW) 2,574 9.7 71.1°
Sets 16:12:39 0° 9° (N) 3,116 9.9 71.0°
